weather.gov     
National Weather Service

Terminal Aerodrome Forecast
NWS Homepage
This page is being discontinued on March 12, 2014.
The same data is available at this site. Please update your bookmarks.
Thank you, and we apologize for the inconvenience.
Please send an email to SR-SRH.Webmaster@noaa.gov with any concerns.


Current Version
Previous Version:    01  02  03  04  05  06  07  08  09  10  11  12  13  14  15  16  17  18  19  20  21  22  23  24  25  26  27  28  29  30  
   31  32  
[Printable]
382
FTUS43 KDVN 281000 AAA
TAFBRL
TAF AMD
KBRL 281005Z 2810/2906 08006KT P6SM BKN022 OVC050
     FM281400 09007KT P6SM VCSH OVC025
     FM281500 09006KT 5SM TSRA BR BKN030CB OVC040
     FM281700 13008KT P6SM VCTS SCT025 BKN040CB PROB30 2819/2821 3SM
      TSRA BKN020CB OVC030=


U.S. Dept. of Commerce
NOAA National Weather Service
1325 East West Highway
Silver Spring, MD 20910
E-mail: w-nws.webmaster@noaa.gov
Page last modified: May 16, 2007
NATIONAL WEATHER SERVICE: for Safety, for Work, for Fun - FOR LIFE